Location: Castle
(40.7167°S, 175.9500°E)
Time: 17:48:51
(UTC+00:00)

Spot 4 Rocket - Pass Details

Date: 04 August 2024
Orbit: 771 x 776 km, 98.9° (Epoch: 18 September)

Event Time Altitude Azimuth Distance (km) Brightness Sun altitude
Rises 17:07:27 0° 25° (NNE) 3,248 7.6 -25.0°
Reaches altitude 10° 17:09:46 10° 28° (NNE) 2,328 6.8 -24.6°
Maximum altitude 17:14:50 63° 107° (ESE) 877 4.4 -23.6°
Drops below altitude 10° 17:19:57 10° 187° (S) 2,355 6.4 -22.6°
Sets 17:22:18 0° 190° (S) 3,289 7.1 -22.2°
